Back to catalog

HULIANWANG DIGUI-09

AliveCommunicationsPO
NORAD 62331·PAYLOAD·🇨🇳 China

Launched Dec 16, 2024 from Wenchang Space Launch Site

Loading…

Next Passes (next 24 hours)

TLE

FreshSource: Space-Track

Epoch: Sep 14, 2026, 14:54 UTC

1 62331U 24240J   26257.62118441  .00000039  00000-0  57439-4 0  9990
2 62331  86.4996 313.1075 0001735  90.9312 269.2021 13.24412576 84479

Track HULIANWANG DIGUI-09 in real time with AllMySat

Download on the App Store